Location: Wildlife_Club
(35.6000°N, 81.4330°W)
Time: 06:51:18
(UTC-05:00)

Daily predictions for brighter satellites

Satellite Brightness Start Highest point End
(mag) Time Altitude Azimuth Time Altitude Azimuth Time Altitude Azimuth
Timation 2 Rocket 4.3 17:31:46 10° NNW 17:38:31 55° ENE 17:45:14 10° SE
NOSS 2-1 (D) 3.4 17:35:57 10° SSW 17:39:45 83° WNW 17:43:53 10° NNE
SPOT 3 Rocket 3.7 17:35:06 10° SSE 17:40:07 52° ENE 17:45:07 10° N
NOSS 2-1 (C) 3.3 17:36:37 10° SSW 17:40:26 84° WNW 17:44:35 10° NNE
BREEZE M DEB (TANK) 3.6 17:27:10 10° SW 17:40:39 87° NW 17:44:22 10° NE
COSMOS 2487 2.4 17:39:37 10° NNW 17:43:13 79° ENE 17:46:47 10° SSE
Cosmos 1812 4.5 17:46:14 10° SW 17:49:45 34° W 17:53:18 10° NNW
Meteor 2-4 Rocket 4.3 17:46:01 10° SSE 17:50:46 34° E 17:55:32 10° NNE
Nadezhda 3 Rocket 4.0 17:47:50 10° S 17:53:59 70° E 18:00:15 10° NNE
Cosmos 1455 Rocket 4.3 17:49:45 10° NNW 17:54:00 47° W 17:58:15 10° SSW
Meteor 1-13 Rocket 4.3 17:49:47 10° S 17:55:26 72° E 18:01:15 10° NNE
Cosmos 1975 3.2 17:51:26 10° NNW 17:55:28 68° W 17:59:26 10° S
Delta 2 Rocket 2.9 17:53:52 10° W 17:57:23 88° N 18:01:05 11° E
NOSS 2-1 (E) 3.9 17:55:25 10° SW 17:59:11 56° NW 18:03:22 10° NNE
Cosmos 1340 4.3 17:59:21 10° SE 18:01:42 16° E 18:02:53 14° ENE
SKYMED 2 4.1 17:59:25 10° NNE 18:03:29 38° E 18:07:30 10° SSE
MOS 1 4.4 17:59:10 10° SSE 18:04:49 86° WSW 18:10:30 10° NNW
CZ-4 R/B 2.2 18:02:57 10° S 18:07:02 58° W 18:11:06 10° NNW
GRACE-2 3.7 18:07:47 10° S 18:10:32 65° E 18:13:18 10° N
GRACE-1 3.7 18:08:12 10° S 18:10:57 68° E 18:13:43 10° N
CZ-4 R/B 4.4 18:07:15 10° SSE 18:11:22 75° ENE 18:15:32 10° N
MONITOR-E 4.3 18:10:09 10° SSE 18:13:15 51° ENE 18:16:22 10° N
IDEFIX/ARIANE 42P 2.8 18:08:25 10° S 18:13:35 73° WSW 18:18:46 10° NNW
MSX 3.8 18:07:56 10° SSE 18:13:39 73° ENE 18:19:23 10° N
Cosmos 1892 Rocket 4.3 18:10:01 10° SSE 18:13:50 30° E 18:17:17 12° NNE
COSMOS 2441 4.4 18:10:08 10° SSE 18:14:55 62° ENE 18:19:46 10° N
Thor Agena Rocket 4.2 18:09:48 10° N 18:14:57 57° WNW 18:20:06 10° SSW
CZ-2C R/B 2.9 18:10:44 10° S 18:15:43 67° W 18:20:52 10° NNW
USA 234 3.6 18:12:03 10° NE 18:18:30 63° NW 18:24:54 10° WSW
Cosmos 1726 Rocket 4.2 18:17:57 10° NNE 18:21:59 33° ENE 18:26:00 10° SE
Okean 1-7 Rocket 4.1 18:19:32 10° SSW 18:24:00 63° W 18:28:26 10° N
Cosmos 1666 2.9 18:20:58 10° N 18:24:44 47° E 18:28:29 10° SSE
SMAP 4.1 18:22:08 10° S 18:26:38 49° W 18:31:09 10° NNW
Cosmos 1833 Rocket 3.1 18:30:32 10° NNW 18:36:08 67° WSW 18:41:40 10° S
Tiangong 1 2.7 18:33:56 10° NW 18:36:16 20° N 18:36:16 20° N
NOSS 3-4 (A) 3.8 18:30:01 10° NNW 18:37:05 66° ENE 18:44:32 10° SE
NOSS 3-4 (C) 3.8 18:30:07 10° NNW 18:37:11 65° ENE 18:44:38 10° SE
Cosmos 1934 Rocket 3.9 18:31:11 10° N 18:37:24 67° E 18:43:41 10° SSE
Cosmos 1606 Rocket 3.5 18:37:32 10° N 18:42:00 69° E 18:46:26 10° SSE
BREEZE M DEB (TANK) 4.2 18:40:16 10° NW 18:44:25 42° NE 18:50:56 21° E
Cosmos 2082 Rocket 3.4 18:42:19 10° NW 18:47:40 44° WSW 18:53:00 10° S
Cosmos 407 Rocket 3.4 18:43:28 10° N 18:48:33 57° ENE 18:53:37 10° SSE
Cosmos 2056 Rocket 4.2 18:44:17 10° SSW 18:49:32 56° WNW 18:54:45 10° N
Cosmos 1025 Rocket 4.0 18:46:22 10° SSW 18:50:36 48° W 18:54:53 10° N
Cosmos 1743 4.5 18:47:45 10° NNW 18:51:15 33° W 18:54:42 10° SSW
COSMO-SKYMED 1 3.2 18:47:18 10° N 18:51:33 55° WNW 18:55:47 10° SSW
Meteor 1-28 Rocket 3.1 18:51:38 30° N 18:53:28 88° WNW 18:57:14 10° SSW
OAO 2 Rocket 4.3 18:53:51 10° SW 18:58:26 32° SSE 18:59:27 29° SE
Cosmos 676 Rocket 4.0 18:56:11 10° N 19:01:15 52° ENE 19:02:36 41° ESE
Orbus 7S? 3.6 18:59:31 10° SW 19:01:28 40° SW 19:01:28 40° SW
NOAA 12 4.0 19:08:43 10° SSE 19:13:59 88° WSW 19:19:16 10° NNW
Cosmos 1153 Rocket 4.3 19:12:52 10° N 19:19:00 67° E 19:25:04 10° SSE
Cosmos 2058 Rocket 3.3 19:15:43 10° NNW 19:20:09 69° W 19:24:31 10° S
Cosmos 2369 Rocket 2.1 19:15:36 10° SSW 19:21:16 86° WNW 19:22:50 50° NNE
Cosmos 1605 Rocket 4.1 19:18:38 10° N 19:24:52 73° W 19:30:59 10° S
ATLAS 3B CENTAUR R/B 4.0 19:14:03 10° W 19:33:28 53° SSW 19:37:23 32° SE
Cosmos 1452 Rocket 4.3 19:33:18 10° SW 19:38:21 48° WNW 19:39:51 37° NNW
Cosmos 1943 Rocket 3.3 19:40:22 10° S 19:43:25 33° S 19:43:25 33° S
FALCON 9 R/B 3.1 19:58:35 10° W 20:13:37 72° SW 20:13:37 72° SW
